[[[{"header":{"parameterUnit":"kt","parameterCategory":2,"dx":1,"dy":1,"la1":30.253999710083008,"la2":30.299108505249023,"lo1":-89.0895004272461,"lo2":-89.04439544677734,"nx":28,"ny":28,"refTime":"2022-10-22T21:00:00:Z","depth":0,"parameterNumber":1,"parameterNumberName":"U-component_of_WINDS"},"data":[-8.5789,-8.5902,-8.592,-8.6058,-8.6097,-8.6194,-8.6234,-8.6288,-8.6335,-8.6454,-8.6525,-8.6555,-8.6608,-8.6698,-8.6776,-8.6787,-8.6817,-8.6847,-8.6854,-8.6708,-8.6689,-8.6671,-8.6643,-8.6854,-8.6854,-8.7,-8.7001,-8.7002,-8.5686,-8.5725,-8.5803,-8.589,-8.5957,-8.594,-8.6008,-8.6065,-8.6152,-8.6211,-8.6281,-8.6387,-8.6472,-8.6516,-8.6601,-8.6655,-8.665,-8.6677,-8.667,-8.6678,-8.6525,-8.6496,-8.6679,-8.6679,-8.6679,-8.6679,-8.6679,-8.6679,-8.5502,-8.557,-8.5631,-8.5715,-8.5763,-8.5822,-8.5889,-8.5921,-8.5997,-8.6087,-8.6092,-8.619,-8.6252,-8.6361,-8.6401,-8.6479,-8.6452,-8.6485,-8.6492,-8.6499,-8.6505,-8.629,-8.6494,-8.6494,-8.6494,-8.6493,-8.6493,0,-8.5371,-8.5381,-8.5455,-8.5536,-8.5598,-8.5661,-8.5722,-8.5764,-8.5787,-8.5849,-8.5939,-8.5994,-8.6103,-8.6189,-8.6271,-8.6306,-8.629,-8.6291,-8.6314,-8.6309,-8.6298,-8.6303,-8.6049,-8.6283,-8.6282,-8.628,-8.6279,-8.6279,-8.5184,-8.5261,-8.5332,-8.5382,-8.5418,-8.55,-8.5551,-8.5565,-8.5619,-8.5695,-8.5754,-8.5842,-8.5911,-8.6054,-8.6088,-8.6169,-8.6161,-8.6248,-8.6172,-8.6168,-8.6158,-8.6152,-8.6159,-8.626,-8.6263,-8.6265,-8.6266,0,-8.5077,-8.5101,-8.5225,-8.5286,-8.5304,-8.5384,-8.5436,-8.5504,-8.5527,-8.5623,-8.5646,-8.5681,-8.5769,-8.579,-8.5894,-8.5902,-8.6035,-8.6027,-8.6014,-8.6012,-8.609,-8.6081,-8.6346,-8.638,-8.6166,-8.6168,-8.617,0,-8.4925,-8.5025,-8.5054,-8.5124,-8.5236,-8.5245,-8.5356,-8.5386,-8.5436,-8.5512,-8.5498,-8.557,-8.5584,-8.5659,-8.567,-8.5783,-8.5803,-8.5814,-8.5815,-8.5813,-8.5811,-8.5836,-8.5824,-8.5817,-8.5816,-8.5815,-8.5813,0,-8.475,-8.4883,-8.4998,-8.5031,-8.5104,-8.5158,-8.5192,-8.5247,-8.5296,-8.5364,-8.5396,-8.5475,-8.5517,-8.5579,-8.5591,-8.5538,-8.573,-8.5659,-8.574,-8.574,-8.5776,-8.5773,-8.6007,-8.5812,-8.5811,-8.5811,-8.581,0,-8.4628,-8.4696,-8.4859,-8.4919,-8.4952,-8.5028,-8.5104,-8.5174,-8.5233,-8.5244,-8.5298,-8.5288,-8.5388,-8.5318,-8.5456,-8.5383,-8.5426,-8.5446,-8.5453,-8.5458,-8.5376,-8.5501,-8.5726,-8.5748,-8.5471,-8.5468,-8.5465,0,-8.4422,-8.4591,-8.4598,-8.4753,-8.4832,-8.4809,-8.4894,-8.4945,-8.4967,-8.5038,-8.5062,-8.5143,-8.5094,-8.5121,-8.5188,-8.5214,-8.5309,-8.5203,-8.5304,-8.5307,-8.5285,-8.5493,-8.5519,-8.5675,-8.5429,-8.5433,-8.5436,0,-8.4262,-8.4348,-8.4374,-8.4412,-8.448,-8.4547,-8.4645,-8.4726,-8.4772,-8.4832,-8.4913,-8.5028,-8.4995,-8.504,-8.5039,-8.5107,-8.5246,-8.5061,-8.5063,-8.5092,-8.5413,-8.5437,-8.5464,-8.5231,-8.5235,-8.5238,-8.5407,0,-8.4068,-8.4154,-8.4228,-8.431,-8.4364,-8.4461,-8.4478,-8.4533,-8.4526,-8.4544,-8.4664,-8.4709,-8.479,-8.4825,-8.4818,-8.4969,-8.4945,-8.4908,-8.4835,-8.4973,-8.5029,-8.5052,-8.4751,-8.4749,-8.4748,-8.4746,0,0,-8.3862,-8.3985,-8.3986,-8.4079,-8.4124,-8.4094,-8.4196,-8.4237,-8.4319,-8.4351,-8.4312,-8.4478,-8.4515,-8.4658,-8.4703,-8.4736,-8.4764,-8.4713,-8.4908,-8.4926,-8.4943,-8.5002,-8.5026,-8.4743,-8.4743,-8.4742,-8.4741,0,-8.3792,-8.3832,-8.3932,-8.3974,-8.4036,-8.4049,-8.4074,-8.4128,-8.4144,-8.4261,-8.4232,-8.4306,-8.4437,-8.448,-8.4519,-8.4699,-8.4671,-8.4723,-8.4814,-8.4891,-8.4911,-8.4929,-8.4991,-8.5014,-8.4737,-8.4738,-8.4738,0,-8.3635,-8.3676,-8.3725,-8.3826,-8.3865,-8.3947,-8.3877,-8.3966,-8.4027,-8.3986,-8.41,-8.4127,-8.4185,-8.4318,-8.4379,-8.4344,-8.4585,-8.4511,-8.4523,-8.4528,-8.4603,-8.4627,-8.4649,-8.4362,-8.4361,-8.436,0,0,-8.3572,-8.3652,-8.3696,-8.3811,-8.3839,-8.3859,-8.3903,-8.3899,-8.3952,-8.3972,-8.4004,-8.4056,-8.4133,-8.4183,-8.4255,-8.4399,-8.441,-8.4465,-8.4482,-8.4497,-8.451,-8.4589,-8.4613,-8.4354,-8.4354,-8.4354,0,0,-8.3541,-8.3596,-8.3579,-8.3715,-8.3766,-8.3816,-8.3886,-8.3865,-8.3931,-8.3921,-8.3917,-8.393,-8.4055,-8.4081,-8.401,-8.4228,-8.4157,-8.4174,-8.4205,-8.4228,-8.4245,-8.4234,-8.394,0,0,0,0,0,-8.3475,-8.359,-8.3574,-8.3598,-8.3723,-8.3826,-8.3842,-8.384,-8.379,-8.3846,-8.387,-8.3837,-8.4042,-8.398,-8.4004,-8.4081,-8.4287,-8.4299,-8.4311,-8.4385,-8.4409,-8.4428,0,0,0,0,0,0,-8.3485,-8.3515,-8.357,-8.3625,-8.3653,-8.3821,-8.3736,-8.3739,-8.3784,-8.3776,-8.3833,-8.3838,-8.3839,-8.3967,-8.3989,-8.4062,-8.3933,-8.4292,-8.4302,-8.4311,-8.4393,-8.4412,-8.4429,0,0,0,0,0,-8.3492,-8.3517,-8.3716,-8.3623,-8.3647,-8.3674,-8.3731,-8.3733,-8.3768,-8.3803,-8.3807,-8.3763,-8.3841,-8.386,-8.398,-8.4052,-8.3917,-8.3926,-8.4299,-8.4307,-8.4314,-8.4403,0,0,0,0,0,0,-8.3498,-8.3519,-8.3721,-8.3728,-8.3578,-8.3664,-8.3678,-8.3728,-8.3791,-8.3797,-8.3732,-8.3725,-8.3844,-8.3858,-8.3872,-8.4049,-8.3905,-8.3913,-8.3918,-8.4305,-8.4311,-8.4316,0,0,0,0,0,0,-8.3506,-8.3526,-8.3725,-8.3669,-8.3669,-8.3656,-8.3668,-8.3769,-8.3793,-8.3717,-8.3713,-8.3728,-8.3822,-8.3857,-8.3868,-8.4027,-8.3895,-8.3903,-8.3909,-8.3912,-8.431,-8.4315,0,0,0,0,0,0,-8.3514,-8.3531,-8.3666,-8.3667,-8.3668,-8.375,-8.3745,-8.3872,-8.3745,-8.3714,-8.3734,-8.3728,-8.3823,-8.3834,-8.3866,-8.402,-8.4025,-8.3895,-8.3901,-8.3905,-8.3907,0,0,0,0,0,0,0,-8.3521,-8.3408,-8.3677,-8.3666,-8.3667,-8.3797,-8.3799,-8.3801,-8.3744,-8.3739,-8.3735,-8.373,-8.3849,-8.3858,-8.3867,-8.4014,0,0,-8.3895,-8.3899,0,0,0,0,0,0,0,0,-8.3401,-8.3406,-8.3678,-8.3679,-8.3681,-8.3797,-8.3799,-8.38,-8.3743,-8.3739,-8.3736,-8.3732,-8.3852,-8.3859,-8.3866,0,0,0,0,0,0,0,0,0,0,0,0,0,0,0,-8.3678,-8.3679,0,-8.3797,-8.3799,-8.38,-8.3743,-8.374,-8.3736,-8.3734,-8.3854,-8.3859,-8.3865,0,0,0,0,0,0,0,0,0,0,0,0,0,0,0,0,0,0,0,0,0,0,0,0,0,0,0,0,0,0,0,0,0,0,0,0,0,0,0,0,0,0,0,0,0,0,0,0,0,0,0,0,0,0,0,0,0,0,0,0,0,0,0,0,0,0,0,0,0]}],[{"header":{"parameterUnit":"kt","parameterCategory":2,"dx":1,"dy":1,"la1":30.253999710083008,"la2":30.299108505249023,"lo1":-89.0895004272461,"lo2":-89.04439544677734,"nx":28,"ny":28,"refTime":"2022-10-22T21:00:00:Z","depth":0,"parameterNumber":2,"parameterNumberName":"V-component_of_WINDS"},"data":[5.3775,5.3694,5.3698,5.3607,5.3595,5.3532,5.351,5.3482,5.346,5.3384,5.334,5.3332,5.3308,5.3254,5.3204,5.3201,5.3179,5.315,5.3151,5.3282,5.3299,5.3317,5.3337,5.3146,5.3145,5.3015,5.3013,5.3013,5.3876,5.3864,5.3816,5.3772,5.3732,5.3763,5.3729,5.3692,5.3634,5.3605,5.3561,5.3492,5.3437,5.3421,5.3368,5.3327,5.3336,5.3313,5.3314,5.331,5.345,5.3472,5.3306,5.3306,5.3306,5.3306,5.3306,5.3306,5.406,5.4012,5.3987,5.3935,5.3914,5.3883,5.3836,5.3829,5.378,5.3726,5.3736,5.3669,5.3638,5.3571,5.3548,5.3494,5.352,5.3492,5.3485,5.3478,5.347,5.366,5.3484,5.3485,5.3485,5.3486,5.3486,0,5.4196,5.4203,5.4156,5.4112,5.4073,5.4037,5.4004,5.3975,5.3984,5.3942,5.3882,5.3847,5.3777,5.3718,5.3666,5.3647,5.3669,5.3671,5.3652,5.3646,5.3649,5.3646,5.3875,5.3675,5.3676,5.3678,5.3678,5.3679,5.4382,5.4324,5.4298,5.4265,5.4248,5.4193,5.4161,5.4174,5.4138,5.4097,5.4051,5.3993,5.3947,5.3846,5.3832,5.3777,5.3786,5.3711,5.3778,5.3777,5.3784,5.3787,5.3781,5.3696,5.3694,5.3692,5.3691,0,5.4486,5.449,5.44,5.4379,5.4372,5.4309,5.429,5.4239,5.4236,5.4165,5.4149,5.4141,5.4079,5.4078,5.4005,5.4005,5.3899,5.3911,5.3912,5.3913,5.3845,5.3851,5.3623,5.3594,5.3793,5.3791,5.3789,0,5.4645,5.4567,5.4578,5.4525,5.4439,5.4453,5.4367,5.4355,5.4328,5.4273,5.43,5.4247,5.4253,5.4198,5.4199,5.4112,5.4098,5.4092,5.4093,5.4089,5.4089,5.4066,5.4074,5.4097,5.4098,5.4099,5.41,0,5.4807,5.472,5.4635,5.4615,5.4582,5.4541,5.4524,5.4494,5.446,5.4416,5.4394,5.434,5.431,5.4267,5.4268,5.4314,5.4162,5.4224,5.4156,5.4155,5.4119,5.4121,5.3922,5.4101,5.4102,5.4102,5.4103,0,5.4934,5.4894,5.4769,5.4743,5.4718,5.466,5.4611,5.4561,5.4526,5.4524,5.4488,5.4504,5.4428,5.4491,5.4386,5.4446,5.4414,5.4402,5.4397,5.4387,5.4457,5.4343,5.4156,5.4136,5.4383,5.4385,5.4387,0,5.5119,5.4994,5.5005,5.4885,5.4827,5.4863,5.4799,5.4767,5.4759,5.4706,5.4695,5.4633,5.468,5.4659,5.4608,5.4592,5.4515,5.4603,5.4522,5.4519,5.4531,5.4359,5.4331,5.4199,5.4417,5.4414,5.4412,0,5.5261,5.5223,5.52,5.5179,5.514,5.509,5.5016,5.4959,5.4924,5.4883,5.482,5.4732,5.4764,5.4729,5.4735,5.4681,5.4568,5.4721,5.472,5.4692,5.4432,5.4406,5.4384,5.4584,5.458,5.4577,5.4435,0,5.5454,5.539,5.533,5.5278,5.524,5.5163,5.5163,5.5123,5.5135,5.5126,5.5033,5.5001,5.4938,5.4912,5.492,5.4798,5.4817,5.485,5.4908,5.4796,5.4749,5.473,5.4979,5.4981,5.4982,5.4983,0,0,5.5628,5.5537,5.555,5.548,5.5448,5.5485,5.5403,5.5375,5.5316,5.5292,5.5326,5.5196,5.5167,5.5052,5.5017,5.4991,5.4968,5.5006,5.4849,5.4835,5.4821,5.4771,5.4751,5.4986,5.4986,5.4987,5.4987,0,5.5698,5.5675,5.5595,5.5569,5.5529,5.5525,5.5506,5.5471,5.5461,5.5369,5.5396,5.5339,5.5232,5.5199,5.5168,5.5022,5.5043,5.5003,5.4926,5.4864,5.4847,5.4832,5.478,5.4761,5.499,5.499,5.499,0,5.5838,5.5815,5.5776,5.5706,5.5679,5.5616,5.568,5.5609,5.5562,5.5599,5.5506,5.5487,5.5441,5.5332,5.5283,5.5311,5.5111,5.5172,5.5163,5.5156,5.5096,5.5076,5.5058,5.5294,5.5295,5.5296,0,0,5.5898,5.5839,5.5815,5.5721,5.5702,5.5693,5.5659,5.5666,5.5627,5.5611,5.5586,5.5545,5.5483,5.5442,5.5383,5.5264,5.5254,5.521,5.5196,5.5184,5.5171,5.5108,5.5088,5.53,5.53,5.53,0,0,5.5925,5.5895,5.5915,5.5806,5.577,5.5737,5.5678,5.5699,5.5647,5.5655,5.566,5.5648,5.5546,5.5525,5.5581,5.5403,5.5461,5.5447,5.5421,5.5402,5.5388,5.5394,5.5637,0,0,0,0,0,5.5995,5.59,5.5918,5.59,5.5807,5.5728,5.5716,5.572,5.5763,5.5716,5.5699,5.5724,5.5557,5.5607,5.5586,5.5522,5.5353,5.5343,5.5335,5.5272,5.5253,5.5237,0,0,0,0,0,0,5.5988,5.5966,5.5921,5.5884,5.5863,5.5731,5.5804,5.5803,5.5768,5.5774,5.5727,5.5723,5.5722,5.5618,5.5599,5.5538,5.5643,5.5349,5.5341,5.5334,5.5265,5.525,5.5237,0,0,0,0,0,5.5983,5.5965,5.5816,5.5885,5.5867,5.5851,5.5808,5.5807,5.578,5.5752,5.5749,5.5786,5.572,5.5705,5.5606,5.5546,5.5656,5.5649,5.5344,5.5338,5.5332,5.5258,0,0,0,0,0,0,5.5978,5.5962,5.5812,5.5807,5.5922,5.5858,5.5849,5.5811,5.5759,5.5755,5.5812,5.5817,5.5718,5.5706,5.5694,5.5549,5.5666,5.5659,5.5655,5.5339,5.5334,5.533,0,0,0,0,0,0,5.5972,5.5957,5.5809,5.5855,5.5855,5.5865,5.5856,5.5772,5.5758,5.5822,5.5825,5.5815,5.5734,5.5707,5.5697,5.5565,5.5674,5.5667,5.5663,5.566,5.5335,5.5331,0,0,0,0,0,0,5.5966,5.5953,5.5857,5.5856,5.5856,5.5795,5.579,5.5693,5.5802,5.5823,5.5811,5.5816,5.5734,5.5725,5.57,5.5571,5.5567,5.5674,5.5669,5.5666,5.5664,0,0,0,0,0,0,0,5.5961,5.6045,5.5845,5.5857,5.5858,5.5756,5.5755,5.5753,5.5803,5.5807,5.581,5.5814,5.5713,5.5705,5.5698,5.5576,0,0,5.5675,5.5671,0,0,0,0,0,0,0,0,5.605,5.6046,5.5845,5.5844,5.5843,5.5756,5.5755,5.5754,5.5804,5.5807,5.581,5.5813,5.5711,5.5705,5.5699,0,0,0,0,0,0,0,0,0,0,0,0,0,0,0,5.5845,5.5844,0,5.5756,5.5755,5.5754,5.5804,5.5807,5.5809,5.5811,5.5709,5.5704,5.5699,0,0,0,0,0,0,0,0,0,0,0,0,0,0,0,0,0,0,0,0,0,0,0,0,0,0,0,0,0,0,0,0,0,0,0,0,0,0,0,0,0,0,0,0,0,0,0,0,0,0,0,0,0,0,0,0,0,0,0,0,0,0,0,0,0,0,0,0,0]}]]]